Date,TemperatureHighF,TemperatureAvgF,TemperatureLowF,DewpointHighF,DewpointAvgF,DewpointLowF,HumidityHigh,HumidityAvg,HumidityLow,PressureMaxIn,PressureMinIn,WindSpeedMaxMPH,WindSpeedAvgMPH,GustSpeedMaxMPH,PrecipitationSumIn
2013-10-1,78,63,56,63,55,48,98,79,38,30.18,30.09,12,2,14,0.00
2013-10-2,80,62,51,64,53,48,98,76,38,30.21,30.12,10,2,10,0.00
2013-10-3,78,62,53,60,55,50,98,80,46,30.21,30.09,8,1,9,0.00
2013-10-4,85,66,55,65,58,53,98,80,39,30.21,30.12,10,1,10,0.00
2013-10-5,83,67,59,67,58,54,98,77,39,30.21,30.09,10,1,10,0.00
2013-10-6,81,67,57,67,58,54,98,77,44,30.12,29.94,16,2,17,0.00
2013-10-7,67,59,47,64,50,39,98,75,50,30.12,29.82,17,3,18,0.95
2013-10-8,70,52,39,48,41,36,98,70,35,30.27,30.12,6,0,6,0.00
2013-10-9,67,51,39,49,39,36,98,69,36,30.29,30.21,0,0,0,0.00
2013-10-10,70,58,49,60,53,40,98,82,63,30.21,30.03,0,0,0,0.03
2013-10-11,68,61,58,59,55,52,98,83,62,30.06,30.00,12,1,14,0.00
2013-10-12,72,62,57,63,58,54,98,87,65,30.18,30.03,7,0,8,0.03
2013-10-13,68,62,57,60,57,54,98,83,65,30.27,30.15,6,0,6,0.01
2013-10-14,72,62,58,60,57,54,98,83,53,30.29,30.18,8,1,9,0.09
2013-10-15,69,59,52,54,50,44,98,76,44,30.27,30.12,7,1,8,0.01
2013-10-16,68,57,47,55,50,46,98,79,57,30.12,29.97,9,1,10,0.00
2013-10-17,63,58,49,62,55,38,98,89,67,30.00,29.82,16,2,18,0.53
2013-10-18,66,52,43,39,36,33,75,55,32,30.06,29.97,17,3,18,0.01
2013-10-19,58,46,39,46,39,32,91,77,46,30.00,29.85,14,2,15,0.00
2013-10-20,60,45,37,34,30,27,71,55,35,30.09,29.97,14,3,16,0.00
2013-10-21,65,46,29,38,32,24,96,61,33,30.15,29.97,12,2,13,0.00
2013-10-22,55,44,36,47,36,30,98,74,52,29.97,29.85,14,2,15,0.01
2013-10-23,46,36,30,41,31,23,98,83,63,29.97,29.73,20,3,22,0.05
2013-10-24,42,34,29,28,24,21,79,67,48,30.12,29.94,14,4,15,0.01
2013-10-25,42,34,25,25,20,18,79,59,44,30.29,30.12,17,4,18,0.00
2013-10-26,52,40,21,29,22,17,96,53,33,30.29,29.97,18,4,20,0.00
2013-10-27,58,46,37,32,28,23,69,51,37,30.12,30.00,19,4,21,0.00
2013-10-28,58,43,29,42,34,24,92,73,48,30.27,30.12,12,1,13,0.00
2013-10-29,64,50,40,47,42,37,98,76,46,30.32,30.24,12,2,13,0.00
2013-10-30,56,52,49,55,50,43,98,91,74,30.27,30.18,4,0,5,0.15
2013-10-31,63,56,52,59,53,49,98,90,63,30.21,29.76,14,1,16,0.13